Wausau, WI

7:34 AM CST on February 26, 2017 (GMT -0600)
Wausau Downtown

Weather History for KAUW - February, 2014

Change the Weather History Date:

Tuesday, February 18, 2014

  Actual Average Record
Temperature  
Mean Temperature 27 °F 20 °F  
Max Temperature 34 °F 29 °F 53 °F (1981)
Min Temperature 19 °F 11 °F -23 °F (1936)
Degree Days  
Heating Degree Days 38 45  
Month to date heating degree days 1074 853  
Since 1 July heating degree days 6384 5703  
Cooling Degree Days 0 0  
Month to date cooling degree days 0 0  
Year to date cooling degree days 0 0  
Moisture  
Dew Point 21 °F    
Average Humidity 85    
Maximum Humidity 100    
Minimum Humidity 69    
Precipitation  
Precipitation T in 0.03 in 0.60 in (1961)
Month to date precipitation 0.69 0.54  
Year to date precipitation 2.24 1.56  
Snow  
Snow T in 0.30 in 8.00 in (1961)
Month to date snowfall 12.3 6.1  
Since 1 July snowfall 64.3 41.8  
Snow Depth 25.00 in    
Sea Level Pressure  
Sea Level Pressure 29.70 in    
Wind  
Wind Speed 8 mph (SSW)    
Max Wind Speed 20 mph    
Max Gust Speed 22 mph    
Visibility 5 miles    
Events Fog    
T = Trace of Precipitation, MM = Missing Value Source: NWS Daily Summary

Daily Weather History Graph

Daily Weather History Graph

Search for Another Location

Airport or City:

Trip Planner

Search our weather history database for the weather conditions in past years. The results will help you decide how hot, cold, wet, or windy it might be!

Date:

Astronomy

Feb. 18, 2014 Rise Set
Actual Time 6:54 AM CST 5:30 PM CST
Civil Twilight 6:24 AM CST 6:00 PM CST
Nautical Twilight 5:50 AM CST 6:35 PM CST
Astronomical Twilight 5:16 AM CST 7:09 PM CST
Moon 9:36 PM CST (2/18) 8:15 AM CST (2/18)
Length of Visible Light 11h 36m
Length of Day
10h 36m
Waning Gibbous, 87% of the Moon is Illuminated
Feb 18
Waning Gibbous
Feb 22
Last Quarter
Mar 1
New
Mar 8
First Quarter
Mar 16
Full

Hourly Weather History & Observations

Time (CST) Temp. Windchill Dew Point Humidity Pressure Visibility Wind Dir Wind Speed Gust Speed Precip Events Conditions
12:54 AM 19.9 °F 13.4 °F 17.1 °F 89% 29.81 in 5.0 mi WNW 4.6 mph - N/A   Overcast
1:54 AM 19.9 °F 11.1 °F 16.0 °F 85% 29.83 in 6.0 mi West 6.9 mph - N/A   Overcast
2:15 AM 21.0 °F 9.9 °F 17.1 °F 85% 29.77 in 5.0 mi West 10.4 mph - N/A   Overcast
2:54 AM 21.0 °F 10.6 °F 18.0 °F 88% 29.82 in 5.0 mi West 9.2 mph - N/A   Overcast
3:11 AM 21.0 °F 13.4 °F 18.0 °F 88% 29.76 in 5.0 mi West 5.8 mph - N/A   Overcast
3:54 AM 19.9 °F 11.1 °F 18.0 °F 92% 29.82 in 4.0 mi WSW 6.9 mph - N/A   Overcast
4:52 AM 19.4 °F 11.5 °F 19.4 °F 100% 29.73 in 3.0 mi South 5.8 mph - N/A   Overcast
4:54 AM 19.9 °F 12.1 °F 19.0 °F 96% 29.80 in 3.0 mi South 5.8 mph - N/A   Overcast
5:07 AM 19.9 °F 12.1 °F 18.0 °F 92% 29.72 in 2.5 mi South 5.8 mph - N/A   Overcast
5:54 AM 19.9 °F 10.1 °F 18.0 °F 92% 29.79 in 2.0 mi SSE 8.1 mph - N/A   Overcast
6:02 AM 19.9 °F 10.1 °F 18.0 °F 92% 29.71 in 1.5 mi SSE 8.1 mph - N/A   Overcast
6:42 AM 19.9 °F 11.1 °F 19.0 °F 96% 29.71 in 0.8 mi South 6.9 mph - N/A   Overcast
6:54 AM 19.9 °F 10.1 °F 18.0 °F 92% 29.78 in 0.8 mi SSE 8.1 mph - N/A   Overcast
7:54 AM 19.9 °F 8.6 °F 19.0 °F 96% 29.78 in 0.5 mi SSE 10.4 mph - N/A Fog Light Freezing Fog
8:54 AM 21.0 °F 11.4 °F 19.9 °F 96% 29.74 in 1.0 mi SE 8.1 mph - N/A   Overcast
9:41 AM 21.9 °F 11.0 °F 19.9 °F 92% 29.66 in 2.0 mi SSE 10.4 mph - N/A   Overcast
9:54 AM 23.0 °F 13.1 °F 19.9 °F 88% 29.73 in 2.5 mi SSE 9.2 mph - N/A   Overcast
10:05 AM 23.0 °F 13.1 °F 21.0 °F 92% 29.65 in 2.5 mi SE 9.2 mph - N/A   Overcast
10:16 AM 23.0 °F 12.4 °F 21.0 °F 92% 29.64 in 3.0 mi SE 10.4 mph - N/A   Mostly Cloudy
10:32 AM 24.1 °F 14.4 °F 21.0 °F 88% 29.64 in 4.0 mi SSE 9.2 mph - N/A   Partly Cloudy
10:54 AM 25.0 °F 14.8 °F 21.9 °F 88% 29.69 in 5.0 mi SE 10.4 mph - N/A   Clear
11:54 AM 30.0 °F 20.5 °F 23.0 °F 75% 29.65 in 6.0 mi SSE 11.5 mph - N/A   Haze
12:54 PM 32.0 °F 21.2 °F 24.1 °F 73% 29.60 in 8.0 mi South 16.1 mph - N/A   Clear
1:54 PM 34.0 °F 26.0 °F 25.0 °F 70% 29.60 in 8.0 mi SSW 10.4 mph - N/A   Clear
2:54 PM 34.0 °F 26.6 °F 25.0 °F 70% 29.59 in 9.0 mi South 9.2 mph - N/A   Clear
3:54 PM 33.1 °F 27.7 °F 25.0 °F 72% 29.58 in 9.0 mi South 5.8 mph - N/A   Clear
4:54 PM 34.0 °F 31.0 °F 25.0 °F 70% 29.59 in 9.0 mi SSW 3.5 mph - N/A   Clear
5:54 PM 30.9 °F - 25.0 °F 79% 29.60 in 9.0 mi Calm Calm - N/A   Clear
6:54 PM 26.1 °F 20.5 °F 23.0 °F 88% 29.63 in 6.0 mi NW 4.6 mph - N/A   Clear
7:54 PM 28.9 °F 21.1 °F 24.1 °F 82% 29.63 in 8.0 mi NW 8.1 mph - N/A   Clear
8:54 PM 26.1 °F 18.4 °F 23.0 °F 88% 29.64 in 6.0 mi NNW 6.9 mph - N/A   Mostly Cloudy
9:54 PM 28.0 °F 21.7 °F 23.0 °F 81% 29.65 in 8.0 mi NW 5.8 mph - N/A   Overcast
10:54 PM 28.0 °F 20.8 °F 21.9 °F 78% 29.66 in 9.0 mi NW 6.9 mph - N/A   Overcast
11:54 PM 27.0 °F 20.5 °F 21.0 °F 78% 29.66 in 9.0 mi NW 5.8 mph - N/A   Partly Cloudy